Home > Time Zones > World Clock > Weather > U.S.A. > Reno > Past weeks

Flag for U.S.A. Weather past 2 weeks in Reno, Nevada, U.S.A.

Now
91 °F

Broken clouds.


Feels Like: 87 °F
Forecast: 59 / 90 °F
Wind: 7 mph from Southwest

Location: Reno Tahoe International Airport

Current Time: Aug 29, 2014 at 3:14:38 PM

Latest Report: Aug 29, 2014 at 2:55 PM


Visibility: 10 mi

Pressure: 29.82 "Hg

Humidity: 12%

Dew point: 32 °F

Location of RenoLocation

Historic Weather in Reno — Graph

°F

Reno temperature yesterday

Maximum temperature yesterday: 94 °F (at 4:55 PM)
Minimum temperature yesterday: 61 °F (at 6:55 AM)
Average temperature yesterday: 78 °F

Past Weeks' High & Low Weather Summary

 TemperatureHumidityPressure
High94 °F (Aug 16, 3:55 PM)67% (Aug 26, 5:55 AM)30.11 "Hg (Aug 26, 5:55 AM)
Low53 °F (Aug 24, 5:55 AM)6% (Aug 17, 2:55 PM)29.63 "Hg (Aug 19, 4:55 PM)
Average74 °F29%29.89 "Hg
* Reported Aug 14 1:55 PM — Aug 29 1:55 PM, Reno, Weather by CustomWeather, © 2014

Note: Actual official high and low records may vary slightly from our data, if they occured in-between our weather recording intervals... More about our weather records

Advertising

Reno weather history for previous 24 hours

 ConditionsComfort  
Time TempWeatherWind HumidityBarometerVisibility
1:55 PM
Aug 29
88 °FMostly cloudy.7 mph13%29.83 "Hg10 mi
11:55 AM82 °FMostly cloudy.No wind22%29.89 "Hg10 mi
10:55 AM77 °FMostly cloudy.No wind28%29.92 "Hg10 mi
9:55 AM72 °FMostly cloudy.No wind33%29.94 "Hg10 mi
8:55 AM69 °FMore clouds than sun.3 mph36%29.95 "Hg10 mi
7:55 AM66 °FBroken clouds.3 mph40%29.95 "Hg10 mi
6:55 AM62 °FPassing clouds.3 mph52%29.95 "Hg10 mi
5:55 AM62 °FPassing clouds.3 mph52%29.93 "Hg10 mi
4:55 AM65 °FClear.5 mph45%29.91 "Hg10 mi
3:55 AM68 °FClear.6 mph36%29.91 "Hg10 mi
2:55 AM69 °FClear.3 mph36%29.91 "Hg10 mi
1:55 AM71 °FClear.No wind34%29.92 "Hg10 mi
12:55 AM75 °FClear.7 mph28%29.93 "Hg10 mi
11:55 PM
Aug 28
77 °FPassing clouds.7 mph26%29.93 "Hg10 mi
10:55 PM78 °FClear.8 mph25%29.93 "Hg10 mi
9:55 PM79 °FClear.12 mph24%29.93 "Hg10 mi
8:55 PM82 °FPassing clouds.12 mph23%29.92 "Hg10 mi
7:55 PM85 °FScattered clouds.14 mph21%29.92 "Hg10 mi
6:55 PM89 °FScattered clouds.10 mph19%29.89 "Hg10 mi
5:55 PM91 °FScattered clouds.5 mph15%29.88 "Hg10 mi
4:55 PM94 °FScattered clouds.10 mph14%29.87 "Hg10 mi
3:55 PM93 °FPartly sunny.5 mph13%29.89 "Hg10 mi
Weather by CustomWeather, © 2014

See weather overviewHow to use our weather pages